Regional Weather Roundup
Issued by NWS Charleston, SC

Current Version | Previous Version | Text Only | Print | Product List | Glossary Off
Versions: 1 2 3 4 5 6 7 8 9 10 11 12 13 14 15 16 17 18 19 20 21 22 23 24 25 26 27 28 29 30 31 32 33 34 35 36 37 38 39 40 41 42 43 44 45 46 47 48 49 50

000
ASUS42 KCHS 170412
RWRCHS

REGIONAL WEATHER ROUNDUP
NATIONAL WEATHER SERVICE CHARLESTON SC
1200 AM EDT THU AUG 17 2017

NOTE: "FAIR" INDICATES FEW OR NO CLOUDS BELOW 12,000 FEET WITH NO
SIGNIFICANT WEATHER AND/OR OBSTRUCTIONS TO VISIBILITY.

NOT ALL STATIONS ARE QUALITY CONTROLLED. USE DATA WITH CAUTION...
ESPECIALLY DEWPOINT OBSERVATIONS.

SCZ027-030-031-034>040-042>050-170500-
...SOUTHEAST SOUTH CAROLINA...

CITY           SKY/WX    TMP DP  RH WIND       PRES   REMARKS
N CHARLESTON   CLEAR     83  79  88 SW6       30.02R HX  94
WATERFRONT PRK   N/A    N/A N/A N/A VRB3      29.87R
JOHNS ISLAND   FAIR      84  81  89 CALM      30.03R HX  98
PINOPOLIS        N/A     82  79  89 VRB2      29.95S HX  93
MONCKS CORNER  FAIR      77  77 100 CALM      30.03R
SUMMERVILLE    FAIR      79  79 100 CALM      30.03S
BEAUFORT MCAS  CLEAR     84  81  90 SW5       30.03R HX  99
BEAUFORT ARPT  FAIR      82  79  89 SW3       30.03R HX  93
HILTON HEAD IS CLEAR     86  81  84 SW8       30.04S HX 102
WALTERBORO     CLEAR     81  79  94 SW3       30.04R
ALLENDALE      NOT AVBL

...SOUTHERN MIDLANDS AND PEE DEE...

CITY           SKY/WX    TMP DP  RH WIND       PRES   REMARKS
GEORGETOWN     FAIR      77  77 100 CALM      30.03S
KINGSTREE      FAIR      77  75  94 CALM      30.02F
ORANGEBURG     CLEAR     79  77  94 CALM      30.03S
BARNWELL       FAIR      82  77  83 CALM      30.04S HX  91
AIKEN          FAIR      79  73  83 SW3       30.08S
MANNING        FAIR      79  77  94 MISG      30.02S
COLUMBIA       CLEAR     82  75  79 CALM      30.02R
SUMTER         CLEAR     81  76  84 CALM      30.00S
FLORENCE       PTCLDY    77  77 100 CALM      30.04R
MYRTLE BEACH   NOT AVBL
N MYRTLE BEACH CLEAR     77  77 100 NE3       30.02S

$$

GAZ063-065-086>088-099>101-113>116-118-119-134>141-150-170500-
...SOUTHEAST GEORGIA...

CITY           SKY/WX    TMP DP  RH WIND       PRES   REMARKS
SAVANNAH ARPT  PTCLDY    84  79  85 SW7       30.04S HX  96
HUNTER AAF     CLEAR     83  79  86 SW5       30.02R HX  95
FORT STEWART   CLEAR     82  76  81 CALM      30.02S HX  90
STATESBORO     CLEAR     81  74  80 CALM      30.05R
SYLVANIA       CLEAR     80  80 100 CALM      30.05S
CLAXTON        FAIR      80  78  95 CALM      30.05R

...CSRA...CENTRAL AND FAR SOUTHEAST GEORGIA...

CITY           SKY/WX    TMP DP  RH WIND       PRES   REMARKS
THOMSON        CLEAR     78  76  92 CALM      30.10F
AUGUSTA-BUSH   CLEAR     84  76  76 W6        30.03R HX  93
AUGUSTA-DANIEL CLEAR     87  73  62 W3        30.05S HX  94
SWAINSBORO     FAIR      79  77  94 CALM      30.07S
VIDALIA        CLEAR     81  77  89 CALM      30.07R
EASTMAN        FAIR      80  79  98 CALM      30.09S
HAZLEHURST     FAIR      82  69  63 CALM      30.06R
ALMA           CLEAR     80  76  87 CALM      30.06R
WAYCROSS       CLEAR     82  74  76 CALM      30.06R
JESUP          FAIR      82  75  78 CALM      30.05S
BAXLEY         FAIR      79  79 100 CALM      30.06R
BRUNSWICK      CLEAR     81  73  78 CALM      30.05S
SAINT SIMONS   CLEAR     85  79  82 SW7       30.04S HX  98

$$

SCZ027-028-034-036>038-045-046-048>050-GAZ119-141-170500-
...LAKE AND SUPPLEMENTAL COASTAL OBSERVATIONS...

STATION/POSITION TIME  TEMP    WIND        PRES    WAVE   SWELL
                       AIR SEA DIR/SP/G            HT/PER HT/PER/DIR
                 (UTC) (F)     (DEG/KT/KT) (MB)    (FT/S) (FT/S/D)
WINYAH BAY       0245   81     290/  2     1017.0
LAKE MURRAY      0320   86      CALM  /  2 1015.9
ACE BASIN NERRS  0245   84        CALM     1016.0
FORT PULASKI     0342   85 86  240/  5/  8 1017.4R
SAPELO ISLAND    0300   84        CALM     1017.0

$$

ANZ835-935-AMZ111-154-330-350-352-354-370-450-454-472-170500-
...C-MAN AND BUOY OBSERVATIONS...

STATION/POSITION TIME  TEMP    WIND        PRES    WAVE   SWELL
                       AIR SEA DIR/SP/G            HT/PER HT/PER/DIR
                 (UTC) (F)     (DEG/KT/KT) (MB)    (FT/S) (FT/S/D)
BUOY 41004       0350   84 84  220/  6/  8 1016.2S   2/ 7   2/140/ 7
BUOY 41008       0350   85 85  190/ 12/ 14 1016.8S   2/ 4   2/ 70/ 7
FOLLY BEACH CMAN 0400   85     230/  8/ 11 1017.3R
CAPERS NEARSHORE 0308   83 85  230/ 10/ 14 1016.3S
FRIPP NEARSHORE  0308   86     220/ 14/ 17 1016.2F


STATION/POSITION TIME  TEMP    WIND        PRES    WAVE   SWELL
                       AIR SEA DIR/SP/G            HT/PER HT/PER/DIR
                 (UTC) (F)     (DEG/KT/KT) (MB)    (FT/S) (FT/S/D)
5E ST. MARYS GA  0330      84                N/A     2/ 4
FRYING PAN BUOY  0350   84 84  160/  2/  2 1016.6S   2/ 5   2/210/ 5
BUOY 41025       0350   80 83  360/  6/  8 1016.7R   2/ 8   2/ 90/ 8
CAPE LOOKOUT NC  0300   81      90/  3/  3 1017.0R
BUOY 41002       0350   84 84  230/ 12/ 14 1016.6F   3/ 6   2/ 70/ 9
BUOY 41010       0350   85 86  210/  8/  8 1018.3F   2/ 8   2/ 80/ 8
ST AUGUSTINE FL  0400   80 83  230/  6/  8 1018.1F


$$




USA.gov is the U.S. government's official web portal to all federal, state and local government web resources and services.